星链-36551(STARLINK-36551)

导读

STARLINK-36551是美国太空探索技术公司(SpaceX)星链计划中的一颗卫星,于2026年1月18日发射升空。作为星链星座的组成部分,它主要服务于全球卫星互联网项目,旨在为全球偏远地区及网络覆盖薄弱区域提供高速宽带网络接入服务,进一步扩充星链星座的在轨网络服务能力。

基本信息
目录编号:
67493
目录名称:
STARLINK-36551
国际标识:
2026-012A
轨道中心:
EARTH
卫星名称:
星链-36551
卫星全名:
星链-36551(STARLINK-36551)
卫星状态:
在轨 (已飞行229 天)
发射日期:
2026-01-18 UTC
国别 :
美国 (US)
星等 :
--
轨道信息
数据来源 国际轨道数据
星历时间: 2026-09-04T02:38:30+0800
14小时前
查看轨道信息
半长轴: 6861.148km
偏心率: 0.0001621
轨道倾角: 43.005°
近地点辐角 268.411°
升交点赤经 29.042°
平近点角 91.656°
近地点: 481.898km
远地点: 484.124km
周期: 94.266分钟
每日圈数: 15.275928
详细信息
固有亮度:
5
最大亮度:
2.5
卫星平台:
Starlink V1.0
覆盖范围:
全球
运营商:
太空探索技术公司
运营商所在国:
美国
制造商(研发单位):
太空探索技术公司
制造商所在国:
美国
使用方式:
暂无
卫星简介
Starlink 计划是 SpaceX 推出的全球卫星互联网项目,通过发射低轨道卫星,为全球尤其是偏远地区提供高速、低延迟的互联网服务。自 2019 年起,Starlink 已部署数千颗卫星,旨在缩小全球数字鸿沟,推动互联网普及。该项目还为军事、航空等行业提供通信支持,带来广泛经济效益。
2D轨道图
3D轨道图
轨道高度分析图
轨道倾角分析图
轨道综合分析图
查看轨道综合分析图
交会数据列表
事件ID 空间交会对象 最接近时刻(TCA) 交会距离 交会风险概率(CRP) 交会风险指数(CRI) 操作
CDM_260904-202605-916006-749321
2026-09-04T
20:26:57+0000
1.416 km
极远距离
6.263977E-6 低风险 0.51
CDM_260904-171505-687706-749321
2026-09-04T
17:15:01+0000
1.894 km
极远距离
2.480634E-6 低风险 0.43
CDM_260905-120405-808606-749321
2026-09-05T
12:04:15+0000
1.902 km
极远距离
2.429928E-6 低风险 0.43
CDM_260905-122505-650406-749321
2026-09-05T
12:25:46+0000
1.902 km
极远距离
2.229073E-6 低风险 0.42
CDM_260904-185205-916006-749321
2026-09-04T
18:52:48+0000
2.266 km
极远距离
1.69118E-6 低风险 0.4
CDM_260905-063805-916006-749321
2026-09-05T
06:38:56+0000
2.585 km
极远距离
1.324567E-6 低风险 0.37
CDM_260904-225703-163106-749321
2026-09-04T
22:57:24+0000
2.996 km
极远距离
1.320839E-6 低风险 0.37
CDM_260905-050405-916006-749321
2026-09-05T
05:04:47+0000
2.664 km
极远距离
1.263197E-6 低风险 0.37
CDM_260905-015205-687706-749321
2026-09-05T
01:52:51+0000
2.780 km
极远距离
1.141302E-6 低风险 0.36